Retour au catalogue

COSMOS 2135

ActifNavigationPO
NORAD 21130·PAYLOAD·🇷🇺 Russia

Lancé Feb 26, 1991 depuis Plesetsk Cosmodrome

Loading…

Prochains Passages (prochaines 24 heures)

TLE

FraisSource: Space-Track

Époque: Sep 14, 2026, 03:00 UTC

1 21130U 91013A   26257.12502826  .00000059  00000-0  43527-4 0  9998
2 21130  82.8303 149.2935 0064857 313.9832  45.5988 13.78808247788274

Suivez COSMOS 2135 en temps réel avec AllMySat

Download on the App Store